Regional Weather Roundup
Issued by NWS Tiyan, Guam

Home | Current Version | Previous Version | Text Only | Print | Product List | Glossary On
Versions: 1 2 3 4 5 6 7 8 9 10 11 12 13 14 15 16 17 18 19 20 21 22 23 24 25 26 27
000
ASGM40 PGUM 220112
RWRGUM
WEATHER ROUNDUP FOR THE MARIANAS
NATIONAL WEATHER SERVICE TIYAN GU
1100 AM CHST SUN JAN 22 2017

GUZ001>004-220200-
MARIANA ISLANDS-

CITY           SKY/WX    TMP DP  RH WIND       PRES   REMARKS
GUAM AIRPORT   CLOUDY    84  75  74 NE20G25   30.01F HX  92
ANDERSEN AFB   PTSUNNY   81  73  78 NE21G29   30.03F
ROTA AIRPORT   PTSUNNY   81  73  78 NE18G25   30.03F
TINIAN AP      MOSUNNY   84  73  70 NE23      30.02F HX  91
SAIPAN AP      MOSUNNY   82  72  69 NE20G25   30.03F

$$





USA.gov is the U.S. government's official web portal to all federal, state and local government web resources and services.